| time (UTC) | temp F | wind direction | speed knots | gust knots | rain 1hr in | rain 24hr in | rain mn in | humidity % | barometer mb |
| 20260504050002 | 65 | 24 | 13.9 | 26.9 | 0.00 | 0.00 | 0.00 | 59 | 1009.9 |
| 20260504044601 | 65 | 293 | 16.5 | 26.9 | 0.00 | 0.00 | 0.00 | 57 | 1010.0 |
| 20260504043055 | 65 | 53 | 16.5 | 29.5 | 0.00 | 0.00 | 0.00 | 57 | 1009.8 |
| 20260504041540 | 65 | 346 | 20.0 | 27.8 | 0.00 | 0.00 | 0.00 | 57 | 1010.2 |
| 20260504040029 | 65 | 350 | 15.6 | 27.8 | 0.00 | 0.00 | 0.00 | 57 | 1010.2 |
| 20260504034521 | 64 | 328 | 16.5 | 26.9 | 0.00 | 0.00 | 0.00 | 58 | 1010.3 |
| 20260504033014 | 65 | 345 | 18.2 | 24.3 | 0.00 | 0.00 | 0.00 | 57 | 1010.5 |
| 20260504031505 | 64 | 5 | 16.5 | 26.9 | 0.00 | 0.00 | 0.00 | 59 | 1010.6 |
| 20260504030055 | 64 | 325 | 16.5 | 28.7 | 0.00 | 0.00 | 0.00 | 58 | 1011.0 |
| 20260504024558 | 64 | 350 | 14.8 | 26.9 | 0.00 | 0.00 | 0.00 | 60 | 1011.0 |
| 20260504023040 | 63 | 308 | 11.3 | 25.2 | 0.00 | 0.00 | 0.00 | 61 | 1011.1 |
| 20260504021522 | 63 | 323 | 7.8 | 21.7 | 0.00 | 0.00 | 0.00 | 65 | 1011.3 |
| 20260504020020 | 64 | 344 | 15.6 | 21.7 | 0.00 | 0.00 | 0.00 | 61 | 1011.4 |
| 20260504014506 | 64 | 336 | 9.6 | 23.5 | 0.00 | 0.00 | 0.00 | 64 | 1011.6 |
| 20260504013046 | 63 | 14 | 11.3 | 21.7 | 0.00 | 0.00 | 0.00 | 66 | 1011.6 |
| 20260504011532 | 63 | 332 | 11.3 | 24.3 | 0.00 | 0.00 | 0.00 | 66 | 1011.9 |
| 20260504010018 | 63 | 46 | 9.6 | 20.9 | 0.00 | 0.00 | 0.00 | 68 | 1012.1 |
| 20260504004509 | 62 | 42 | 7.0 | 21.7 | 0.00 | 0.00 | 0.00 | 68 | 1012.1 |
| 20260504003057 | 63 | 32 | 12.2 | 21.7 | 0.00 | 0.00 | 0.00 | 68 | 1012.1 |
| 20260504001516 | 62 | 351 | 12.2 | 20.0 | 0.00 | 0.00 | 0.00 | 69 | 1011.8 |
| 20260504000010 | 62 | 339 | 14.8 | 20.9 | 0.00 | 0.00 | 0.00 | 68 | 1012.0 |
| 20260503234600 | 62 | 23 | 6.1 | 15.6 | 0.00 | 0.00 | 0.00 | 69 | 1011.9 |
| 20260503233028 | 61 | 342 | 7.0 | 16.5 | 0.00 | 0.00 | 0.00 | 71 | 1012.1 |
| 20260503231508 | 61 | 15 | 5.2 | 14.8 | 0.00 | 0.00 | 0.00 | 71 | 1012.2 |
| 20260503230043 | 60 | 345 | 2.6 | 17.4 | 0.00 | 0.00 | 0.00 | 74 | 1012.2 |
| 20260503224511 | 59 | 355 | 6.1 | 15.6 | 0.00 | 0.00 | 0.00 | 74 | 1012.2 |
| 20260503223100 | 58 | 355 | 6.1 | 13.9 | 0.00 | 0.00 | 0.00 | 74 | 1012.4 |
| 20260503223001 | 58 | 360 | 7.0 | 13.9 | 0.00 | 0.00 | 0.00 | 75 | 1012.4 |
| 20260503221558 | 58 | 349 | 7.0 | 13.0 | 0.00 | 0.00 | 0.00 | 74 | 1012.3 |
| 20260503220046 | 58 | 355 | 7.8 | 13.0 | 0.00 | 0.00 | 0.00 | 74 | 1012.4 |
| 20260503214542 | 58 | 360 | 7.0 | 13.9 | 0.00 | 0.00 | 0.00 | 74 | 1012.3 |
| 20260503213023 | 57 | 360 | 8.7 | 14.8 | 0.00 | 0.00 | 0.00 | 74 | 1012.2 |
| 20260503211516 | 57 | 340 | 3.5 | 13.9 | 0.00 | 0.00 | 0.00 | 74 | 1012.2 |
| 20260503210006 | 57 | 347 | 2.6 | 13.0 | 0.00 | 0.00 | 0.00 | 75 | 1012.2 |
| 20260503204513 | 56 | 348 | 5.2 | 10.4 | 0.00 | 0.00 | 0.00 | 76 | 1012.1 |
| 20260503203019 | 56 | 13 | 3.5 | 8.7 | 0.00 | 0.00 | 0.00 | 76 | 1011.8 |
| 20260503201503 | 56 | 312 | 3.5 | 10.4 | 0.00 | 0.00 | 0.00 | 76 | 1011.9 |
| 20260503200055 | 56 | 327 | 3.5 | 9.6 | 0.00 | 0.00 | 0.00 | 76 | 1011.9 |
| 20260503194557 | 56 | 17 | 3.5 | 9.6 | 0.00 | 0.00 | 0.00 | 77 | 1011.9 |
| 20260503193040 | 56 | 9 | 6.1 | 11.3 | 0.00 | 0.00 | 0.00 | 77 | 1012.0 |
| 20260503191523 | 56 | 342 | 4.3 | 11.3 | 0.00 | 0.00 | 0.00 | 76 | 1012.3 |
| 20260503190018 | 56 | 5 | 2.6 | 7.8 | 0.00 | 0.00 | 0.00 | 76 | 1012.4 |
| 20260503184513 | 56 | 329 | 4.3 | 10.4 | 0.00 | 0.00 | 0.00 | 77 | 1012.6 |
| 20260503183005 | 56 | 17 | 4.3 | 10.4 | 0.00 | 0.00 | 0.00 | 78 | 1012.5 |
| 20260503181603 | 56 | 39 | 4.3 | 9.6 | 0.00 | 0.00 | 0.00 | 80 | 1012.5 |
| 20260503180045 | 56 | 15 | 5.2 | 11.3 | 0.00 | 0.00 | 0.00 | 81 | 1012.7 |
| 20260503174538 | 56 | 5 | 4.3 | 10.4 | 0.00 | 0.00 | 0.00 | 82 | 1012.8 |
| 20260503173036 | 56 | 342 | 5.2 | 12.2 | 0.00 | 0.00 | 0.00 | 82 | 1012.9 |
| 20260503171513 | 56 | 355 | 5.2 | 10.4 | 0.00 | 0.00 | 0.00 | 82 | 1012.9 |
| 20260503081547 | 59 | 297 | 1.7 | 3.5 | 0.00 | 0.00 | 0.00 | 86 | 1012.2 |
| 20260503071503 | 62 | 307 | 6.1 | 12.2 | 0.00 | 0.00 | 0.00 | 80 | 1011.7 |
| 20260503070103 | 63 | 308 | 6.1 | 12.2 | 0.00 | 0.00 | 0.00 | 81 | 1011.5 |
| 20260503054516 | 61 | 328 | 6.1 | 10.4 | 0.00 | 0.00 | 0.00 | 88 | 1011.6 |
| 20260503053006 | 61 | 303 | 8.7 | 16.5 | 0.00 | 0.00 | 0.00 | 89 | 1011.5 |